This demonstration page uses our WeatherBlox Daily Observations layout. Learn more.

Left ArrowRight Arrow

39.01783, -85.05884

Hourly Observations for November 27, 2018

Temp ( °F °C ) Dew Point ( °F °C ) Humidity (%) Winds ( mph kmh ) Pressure ( in mb ) Visibility ( mi km ) Precip ( " mm )
12:36 am 00:36 Cloudy 29 -1.7 24 -4.4 82 82 WNW 14 22 30.00 1016 10 16 0.00 0.00
12:52 am 00:52 Cloudy 29 -1.7 25 -3.9 85 85 WNW 12 19 29.95 1014 10 16 0.00 0.00
1:40 am 01:40 Cloudy with Light Freezing Drizzle 29 -1.7 25 -3.9 85 85 WNW 9 15 30.00 1016 10 16 0.00 0.03
1:52 am 01:52 Cloudy 29 -1.7 26 -3.3 89 89 W 12 19 29.95 1014 10 16 0.00 0.03
2:27 am 02:27 Cloudy 29 -1.7 23 -5 78 78 W 17 28 30.00 1016 10 16 0.00 0.03
2:52 am 02:52 Cloudy 28 -2.2 22 -5.6 78 78 W 15 24 29.95 1014 10 16 0.00 0.03
3:52 am 03:52 Cloudy 27 -2.8 23 -5 85 85 W 13 20 29.95 1014 10 16 0.00 0.00
4:52 am 04:52 Cloudy 26 -3.3 22 -5.6 84 84 NW 13 20 29.95 1014 10 16 0.00 0.00
5:52 am 05:52 Cloudy 26 -3.3 20 -6.7 78 78 WNW 14 22 29.96 1014 10 16 0.00 0.00
6:52 am 06:52 Cloudy with Light Snow 25 -3.9 22 -5.6 88 88 WNW 10 17 29.96 1015 6 10 0.00 0.03
7:52 am 07:52 Cloudy with Light Snow 25 -3.9 21 -6.1 85 85 WNW 10 17 29.98 1015 7 11 0.00 0.03
8:31 am 08:31 Cloudy with Light Snow 25 -3.9 21 -6.1 85 85 W 14 22 30.03 1017 3 5 0.00 0.03
8:46 am 08:46 Cloudy with Light Snow 25 -4 21 -6 86 86 W 15 24 30.03 1017 3 4 0.01 0.25
8:52 am 08:52 Cloudy with Light Snow 25 -3.9 21 -6.1 85 85 W 13 20 29.98 1015 3 4 0.01 0.25
9:52 am 09:52 Cloudy with Light Snow 24 -4.4 21 -6.1 88 88 W 12 19 29.99 1016 3 4 0.00 0.03
10:52 am 10:52 Cloudy with Light Snow 25 -3.9 19 -7.2 78 78 W 10 17 29.98 1015 3 4 0.00 0.03
11:02 am 11:02 Cloudy with Light Snow 25 -3.9 20 -6.7 81 81 W 10 17 30.03 1017 3 4 0.00 0.03
11:22 am 11:22 Cloudy with Light Snow 24 -4.4 20 -6.7 84 84 W 12 19 30.03 1017 2 3 0.00 0.03
11:52 am 11:52 Cloudy with Light Snow 24 -4.4 20 -6.7 84 84 W 10 17 29.97 1015 3 4 0.00 0.03
12:10 pm 12:10 Cloudy with Light Snow 24 -4.4 20 -6.7 84 84 W 14 22 30.00 1016 2 3 0.00 0.03
12:44 pm 12:44 Cloudy with Light Snow 25 -3.9 19 -7.2 78 78 W 14 22 30.00 1016 2 3 0.00 0.03
12:52 pm 12:52 Cloudy with Light Snow 25 -3.9 18 -7.8 75 75 WNW 12 19 29.95 1014 3 4 0.02 0.51
12:57 pm 12:57 Cloudy with Light Snow 25 -3.9 18 -7.8 75 75 W 15 24 30.00 1016 6 10 0.00 0.03
1:52 pm 13:52 Cloudy 25 -3.9 18 -7.8 75 75 W 12 19 29.95 1014 8 13 0.00 0.03
2:07 pm 14:07 Cloudy with Light Snow 25 -3.9 19 -7.2 78 78 W 14 22 30.00 1016 3 4 0.00 0.03
2:13 pm 14:13 Cloudy with Light Snow 25 -3.9 20 -6.7 81 81 W 13 20 30.00 1016 6 10 0.00 0.03
2:52 pm 14:52 Cloudy with Light Snow 25 -3.9 19 -7.2 78 78 W 10 17 29.95 1014 3 5 0.00 0.03
2:59 pm 14:59 Cloudy with Light Snow 25 -3.9 20 -6.7 81 81 W 14 22 30.00 1016 2 3 0.00 0.03
3:09 pm 15:09 Cloudy with Light Snow 25 -3.9 20 -6.7 81 81 W 14 22 30.00 1016 6 10 0.00 0.03
3:52 pm 15:52 Cloudy with Light Snow 24 -4.4 18 -7.8 77 77 W 15 24 29.96 1015 5 8 0.00 0.03
4:52 pm 16:52 Cloudy with Light Snow 24 -4.4 16 -8.9 71 71 WNW 14 22 29.98 1015 8 13 0.00 0.03
5:36 pm 17:36 Cloudy with Light Snow 24 -4.4 19 -7.2 81 81 W 15 24 30.03 1017 2 3 0.00 0.03
5:42 pm 17:42 Cloudy with Light Snow 23 -5 20 -6.7 88 88 W 13 20 30.03 1017 2 2 0.00 0.03
5:49 pm 17:49 Cloudy with Light Snow 23 -5 19 -7 86 86 W 13 20 30.03 1017 3 4 0.00 0.03
5:52 pm 17:52 Cloudy with Light Snow 23 -5 19 -7.2 85 85 W 12 19 29.99 1016 4 6 0.00 0.03
6:05 pm 18:05 Cloudy with Light Snow 23 -5 18 -7.8 81 81 W 15 24 30.03 1017 8 13 0.00 0.03
6:52 pm 18:52 Cloudy with Light Snow 23 -5 16 -8.9 74 74 W 14 22 30.01 1016 9 14 0.00 0.03
7:41 pm 19:41 Cloudy with Light Snow 23 -5 14 -10 68 68 W 14 22 30.06 1018 8 13 0.00 0.03
7:52 pm 19:52 Cloudy with Light Snow 22 -5.6 16 -8.9 78 78 W 14 22 30.02 1017 8 13 0.00 0.03
8:11 pm 20:11 Cloudy with Light Snow 22 -5.6 16 -8.9 78 78 W 12 19 30.06 1018 9 14 0.00 0.03
8:52 pm 20:52 Cloudy 22 -5.6 15 -9.4 75 75 W 9 15 30.02 1017 10 16 0.00 0.03
9:43 pm 21:43 Cloudy 22 -5.6 14 -10 71 71 W 12 19 30.06 1018 10 16 0.00 0.00
9:52 pm 21:52 Cloudy with Light Snow 22 -5.6 15 -9.4 75 75 W 14 22 30.03 1017 9 14 0.00 0.03
10:12 pm 22:12 Cloudy with Light Snow 22 -5.6 15 -9.4 75 75 W 12 19 30.06 1018 9 14 0.00 0.03
10:52 pm 22:52 Cloudy 22 -5.6 15 -9.4 75 75 W 13 20 30.03 1017 10 16 0.00 0.03
11:52 pm 23:52 Cloudy 22 -5.6 15 -9.4 75 75 W 10 17 30.04 1017 10 16 0.00 0.00

Powered by AerisWeather